DAL15 EDDF-KATL

Flight info

Callsign DAL15
Flight time N/A
Altitude 36000
Route OBOKA5G/25C OBOKA Z29 TORNU DCT VICOT DCT GALSO Q63 ERING L179 UGBET Q60 OKSAW DCT BIBPE DCT FELCA DCT FADZU DCT NICXI DCT OFSOX DCT SLANY DCT DOGAL/M081F380 NATD RIKAL/N0465F400 N566A TUSKY DCT BOS DCT BAF Q406 DBABE Q448 PTW J48 MOL DCT FLASK OZZZI2
Aircraft A333/H-SDE3GHIJ2J3J5M1RVWXY/LB2D1

Departure

Time 2026-04-14 09:46
Airport Frankfurt Main Airport (EDDF)

Arrival

Time N/A
Airport Hartsfield Jackson Atlanta International Airport (KATL)
Time Latitude Longitude Altitude Speed Heading
2026-04-14 09:12 50.05070 8.58743 365 ft 0 kts 340°
2026-04-14 09:31 50.05070 8.58744 363 ft 1 kts 340°
2026-04-14 09:31 50.05047 8.58757 368 ft 4 kts 340°
2026-04-14 09:31 50.05022 8.58771 369 ft 4 kts 340°
2026-04-14 09:32 50.04999 8.58790 366 ft 4 kts 308°
2026-04-14 09:32 50.04990 8.58824 363 ft 4 kts 265°
2026-04-14 09:32 50.04999 8.58875 363 ft 1 kts 250°
2026-04-14 09:36 50.04991 8.58839 363 ft 9 kts 249°
2026-04-14 09:36 50.04966 8.58735 365 ft 11 kts 249°
2026-04-14 09:36 50.04939 8.58625 369 ft 11 kts 249°
2026-04-14 09:36 50.04912 8.58510 365 ft 12 kts 249°
2026-04-14 09:37 50.04883 8.58390 366 ft 12 kts 249°
2026-04-14 09:37 50.04853 8.58264 370 ft 13 kts 249°
2026-04-14 09:37 50.04822 8.58133 371 ft 14 kts 249°
2026-04-14 09:37 50.04778 8.57993 363 ft 15 kts 230°
2026-04-14 09:38 50.04707 8.57880 368 ft 15 kts 238°
2026-04-14 09:38 50.04667 8.57733 370 ft 15 kts 250°
2026-04-14 09:38 50.04631 8.57581 366 ft 15 kts 250°
2026-04-14 09:38 50.04561 8.57523 370 ft 11 kts 168°
2026-04-14 09:39 50.04494 8.57552 368 ft 9 kts 175°
2026-04-14 09:39 50.04428 8.57504 373 ft 13 kts 230°
2026-04-14 09:39 50.04391 8.57383 369 ft 12 kts 249°
2026-04-14 09:39 50.04359 8.57249 371 ft 17 kts 249°
2026-04-14 09:40 50.04316 8.57070 368 ft 18 kts 249°
2026-04-14 09:40 50.04270 8.56878 367 ft 19 kts 250°
2026-04-14 09:40 50.04223 8.56681 366 ft 20 kts 250°
2026-04-14 09:40 50.04172 8.56465 363 ft 22 kts 249°
2026-04-14 09:41 50.04117 8.56238 359 ft 23 kts 250°
2026-04-14 09:41 50.04061 8.56004 358 ft 23 kts 250°
2026-04-14 09:41 50.04005 8.55765 363 ft 24 kts 249°
2026-04-14 09:41 50.03946 8.55522 360 ft 24 kts 249°
2026-04-14 09:42 50.03890 8.55285 360 ft 24 kts 250°
2026-04-14 09:42 50.03832 8.55043 359 ft 24 kts 249°
2026-04-14 09:42 50.03773 8.54798 358 ft 24 kts 250°
2026-04-14 09:42 50.03713 8.54547 354 ft 25 kts 249°
2026-04-14 09:43 50.03662 8.54349 356 ft 13 kts 236°
2026-04-14 09:43 50.03584 8.54330 354 ft 12 kts 168°
2026-04-14 09:43 50.03514 8.54380 357 ft 10 kts 137°
2026-04-14 09:43 50.03503 8.54469 357 ft 3 kts 70°
2026-04-14 09:44 50.03504 8.54469 357 ft 0 kts 70°
2026-04-14 09:45 50.03522 8.54547 358 ft 30 kts 70°
2026-04-14 09:45 50.03670 8.55162 354 ft 90 kts 70°
2026-04-14 09:46 50.03950 8.56332 361 ft 139 kts 70°
2026-04-14 09:46 50.04296 8.57846 729 ft 154 kts 69°
2026-04-14 09:46 50.04665 8.59455 1294 ft 157 kts 67°
2026-04-14 09:46 50.05026 8.61036 2021 ft 155 kts 69°
2026-04-14 09:47 50.05399 8.62677 2350 ft 170 kts 67°
2026-04-14 09:47 50.05817 8.64514 2548 ft 191 kts 68°
2026-04-14 09:47 50.06281 8.66565 2761 ft 211 kts 68°
2026-04-14 09:47 50.06782 8.68775 3198 ft 219 kts 66°
2026-04-14 09:48 50.07551 8.70788 3819 ft 215 kts 45°
2026-04-14 09:48 50.08790 8.72170 4182 ft 227 kts 26°
2026-04-14 09:48 50.10283 8.73227 4472 ft 244 kts 22°
2026-04-14 09:48 50.11887 8.74266 5048 ft 253 kts 21°
2026-04-14 09:49 50.13519 8.75332 5802 ft 256 kts 21°
2026-04-14 09:49 50.15177 8.76430 6533 ft 261 kts 21°
2026-04-14 09:49 50.16866 8.77560 7227 ft 267 kts 21°
2026-04-14 09:49 50.18589 8.78720 7930 ft 273 kts 22°
2026-04-14 09:50 50.20356 8.79915 8626 ft 280 kts 22°
2026-04-14 09:50 50.22161 8.81135 9318 ft 286 kts 21°
2026-04-14 09:50 50.24074 8.82037 10001 ft 290 kts
2026-04-14 09:50 50.26093 8.81869 10502 ft 298 kts 342°
2026-04-14 09:51 50.27955 8.80344 10744 ft 313 kts 317°
2026-04-14 09:51 50.29269 8.77556 11029 ft 326 kts 292°
2026-04-14 09:51 50.30082 8.74204 11507 ft 334 kts 287°
2026-04-14 09:51 50.30815 8.70726 12129 ft 339 kts 287°
2026-04-14 09:52 50.31556 8.67204 12780 ft 342 kts 287°
2026-04-14 09:52 50.32308 8.63670 13114 ft 344 kts 287°
2026-04-14 09:52 50.33072 8.60118 13408 ft 346 kts 287°
2026-04-14 09:52 50.33847 8.56534 14073 ft 348 kts 287°
2026-04-14 09:53 50.34627 8.52935 14677 ft 350 kts 287°
2026-04-14 09:53 50.35413 8.49303 15236 ft 354 kts 287°
2026-04-14 09:53 50.36209 8.45628 15790 ft 358 kts 287°
2026-04-14 09:53 50.37009 8.41915 16340 ft 362 kts 285°
2026-04-14 09:54 50.37585 8.38077 16852 ft 363 kts 275°
2026-04-14 09:54 50.37551 8.34132 17391 ft 364 kts 259°
2026-04-14 09:54 50.36953 8.30270 17906 ft 367 kts 253°
2026-04-14 09:54 50.36191 8.26433 18394 ft 372 kts 252°
2026-04-14 09:55 50.35398 8.22563 18873 ft 374 kts 251°
2026-04-14 09:55 50.34607 8.18682 19409 ft 375 kts 251°
2026-04-14 09:55 50.33816 8.14787 19923 ft 376 kts 251°
2026-04-14 09:55 50.33025 8.10876 20390 ft 378 kts 251°
2026-04-14 09:56 50.32231 8.06945 20864 ft 380 kts 251°
2026-04-14 09:56 50.31431 8.02987 21328 ft 382 kts 251°
2026-04-14 09:56 50.30630 7.99021 21799 ft 384 kts 251°
2026-04-14 09:56 50.29993 7.94950 22246 ft 388 kts 260°
2026-04-14 09:57 50.29887 7.90718 22678 ft 393 kts 273°
2026-04-14 09:57 50.30435 7.86511 23108 ft 399 kts 286°
2026-04-14 09:57 50.31480 7.82464 23550 ft 402 kts 292°
2026-04-14 09:57 50.32648 7.78474 23961 ft 404 kts 293°
2026-04-14 09:58 50.33837 7.74476 24313 ft 407 kts 295°
2026-04-14 09:58 50.35246 7.70622 24659 ft 410 kts 303°
2026-04-14 09:58 50.37106 7.67217 25002 ft 414 kts 315°
2026-04-14 09:58 50.39407 7.64475 25346 ft 418 kts 328°
2026-04-14 09:59 50.42006 7.62411 25704 ft 421 kts 334°
2026-04-14 09:59 50.44689 7.60558 26071 ft 422 kts 335°
2026-04-14 09:59 50.47394 7.58724 26406 ft 424 kts 335°
2026-04-14 09:59 50.50066 7.56904 26743 ft 425 kts 335°
2026-04-14 10:00 50.52817 7.55019 27087 ft 427 kts 335°
2026-04-14 10:00 50.55506 7.53048 27437 ft 427 kts 330°
2026-04-14 10:00 50.58031 7.50697 27740 ft 428 kts 326°
2026-04-14 10:00 50.60544 7.48158 28038 ft 430 kts 326°
2026-04-14 10:01 50.63050 7.45588 28388 ft 431 kts 325°
2026-04-14 10:01 50.65561 7.43008 28766 ft 431 kts 325°
2026-04-14 10:01 50.68079 7.40418 29050 ft 433 kts 325°
2026-04-14 10:01 50.70599 7.37801 29338 ft 435 kts 323°
2026-04-14 10:02 50.72970 7.34834 29623 ft 435 kts 315°
2026-04-14 10:02 50.75001 7.31304 29905 ft 435 kts 306°
2026-04-14 10:02 50.76640 7.27282 30200 ft 436 kts 299°
2026-04-14 10:02 50.78109 7.23081 30435 ft 438 kts 297°
2026-04-14 10:03 50.79511 7.18807 30661 ft 439 kts 296°
2026-04-14 10:03 50.80886 7.14494 30912 ft 440 kts 296°
2026-04-14 10:03 50.82257 7.10158 31140 ft 442 kts 296°
2026-04-14 10:03 50.83636 7.05813 31372 ft 443 kts 296°
2026-04-14 10:04 50.85022 7.01465 31647 ft 443 kts 297°
2026-04-14 10:04 50.86421 6.97101 31869 ft 444 kts 297°
2026-04-14 10:04 50.87825 6.92733 32075 ft 446 kts 297°
2026-04-14 10:04 50.89230 6.88362 32343 ft 445 kts 297°
2026-04-14 10:05 50.90632 6.84000 32664 ft 444 kts 297°
2026-04-14 10:05 50.92031 6.79642 32967 ft 443 kts 297°
2026-04-14 10:05 50.93425 6.75291 33254 ft 442 kts 297°
2026-04-14 10:05 50.94814 6.70943 33523 ft 442 kts 297°
2026-04-14 10:06 50.96197 6.66608 33808 ft 441 kts 297°
2026-04-14 10:06 50.97581 6.62263 34087 ft 440 kts 297°
2026-04-14 10:06 50.98956 6.57933 34390 ft 438 kts 298°
2026-04-14 10:06 51.00323 6.53624 34676 ft 436 kts 298°
2026-04-14 10:07 51.01685 6.49322 34844 ft 437 kts 298°
2026-04-14 10:07 51.03052 6.44999 34987 ft 438 kts 298°
2026-04-14 10:07 51.04418 6.40673 35158 ft 439 kts 298°
2026-04-14 10:07 51.05784 6.36334 35327 ft 439 kts 298°
2026-04-14 10:08 51.07148 6.31998 35505 ft 439 kts 298°
2026-04-14 10:08 51.08512 6.27651 35664 ft 439 kts 297°
2026-04-14 10:08 51.09877 6.23296 35839 ft 440 kts 297°
2026-04-14 10:08 51.11241 6.18937 35996 ft 440 kts 297°
2026-04-14 10:09 51.12602 6.14577 36165 ft 440 kts 297°
2026-04-14 10:09 51.14723 6.05453 36203 ft 439 kts 288°
2026-04-14 10:10 51.16318 5.96150 36201 ft 438 kts 287°
2026-04-14 10:10 51.17824 5.86730 36198 ft 439 kts 286°
2026-04-14 10:11 51.19374 5.77327 36199 ft 438 kts 287°
2026-04-14 10:11 51.21009 5.67977 36187 ft 437 kts 288°
2026-04-14 10:12 51.22643 5.58681 36185 ft 434 kts 288°
2026-04-14 10:12 51.24258 5.49403 36190 ft 434 kts 288°
2026-04-14 10:13 51.25861 5.40110 36189 ft 434 kts 288°
2026-04-14 10:13 51.27454 5.30812 36192 ft 434 kts 288°
2026-04-14 10:14 51.29040 5.21504 36189 ft 434 kts 288°
2026-04-14 10:14 51.30611 5.12228 36195 ft 432 kts 288°
2026-04-14 10:15 51.32173 5.02967 36195 ft 431 kts 288°
2026-04-14 10:15 51.33728 4.93699 36201 ft 432 kts 288°
2026-04-14 10:16 51.35275 4.84429 36203 ft 432 kts 288°
2026-04-14 10:16 51.36815 4.75145 36187 ft 431 kts 288°
2026-04-14 10:17 51.38341 4.65895 36184 ft 428 kts 288°
2026-04-14 10:17 51.39853 4.56679 36185 ft 428 kts 288°
2026-04-14 10:18 51.42109 4.42844 36183 ft 428 kts 287°
2026-04-14 10:18 51.43595 4.33669 36182 ft 428 kts 287°
2026-04-14 10:19 51.45082 4.24435 36186 ft 428 kts 287°
2026-04-14 10:19 51.46563 4.15186 36184 ft 428 kts 287°
2026-04-14 10:20 51.48128 4.05983 36186 ft 426 kts 292°
2026-04-14 10:20 51.50427 3.97245 36184 ft 425 kts 296°
2026-04-14 10:21 51.52901 3.88636 36189 ft 425 kts 297°
2026-04-14 10:21 51.55401 3.80052 36185 ft 423 kts 297°
2026-04-14 10:22 51.57879 3.71487 36188 ft 422 kts 297°
2026-04-14 10:22 51.60339 3.62915 36191 ft 422 kts 297°
2026-04-14 10:23 51.62788 3.54336 36189 ft 422 kts 296°
2026-04-14 10:23 51.65233 3.45739 36191 ft 422 kts 296°
2026-04-14 10:24 51.67669 3.37141 36177 ft 422 kts 297°
2026-04-14 10:24 51.70094 3.28551 36200 ft 420 kts 296°
2026-04-14 10:25 51.72142 3.19735 36202 ft 423 kts 286°
2026-04-14 10:25 51.72625 3.10232 36199 ft 431 kts 270°
2026-04-14 10:26 51.71962 3.00577 36190 ft 434 kts 266°
2026-04-14 10:26 51.71077 2.90934 36187 ft 435 kts 266°
2026-04-14 10:27 51.70179 2.81297 36192 ft 434 kts 266°
2026-04-14 10:27 51.69308 2.71688 36195 ft 433 kts 266°
2026-04-14 10:28 51.68448 2.62080 36190 ft 433 kts 266°
2026-04-14 10:28 51.67588 2.52486 36189 ft 433 kts 266°
2026-04-14 10:29 51.66722 2.42939 36182 ft 433 kts 266°
2026-04-14 10:29 51.65840 2.33351 36184 ft 432 kts 266°
2026-04-14 10:30 51.64947 2.23722 36183 ft 432 kts 266°
2026-04-14 10:30 51.64053 2.14168 36183 ft 432 kts 266°
2026-04-14 10:31 51.63166 2.04673 36181 ft 432 kts 266°
2026-04-14 10:31 51.62281 1.95119 36183 ft 432 kts 266°
2026-04-14 10:32 51.61390 1.85575 36179 ft 431 kts 267°
2026-04-14 10:32 51.60638 1.77603 36178 ft 430 kts 267°
2026-04-14 10:33 51.59734 1.68100 36175 ft 430 kts 267°
2026-04-14 10:33 51.59273 1.58662 36177 ft 423 kts 276°
2026-04-14 10:34 51.59751 1.44538 36151 ft 421 kts 278°
2026-04-14 10:35 51.60171 1.35174 36167 ft 418 kts 279°
2026-04-14 10:35 51.60575 1.25877 36157 ft 416 kts 279°
2026-04-14 10:36 51.60960 1.16584 36157 ft 416 kts 278°
2026-04-14 10:36 51.61332 1.07288 36146 ft 417 kts 278°
2026-04-14 10:37 51.61695 0.97989 36146 ft 417 kts 278°
2026-04-14 10:37 51.62047 0.88722 36152 ft 412 kts 279°
2026-04-14 10:38 51.62388 0.79580 36158 ft 408 kts 279°
2026-04-14 10:38 51.62724 0.70475 36156 ft 408 kts 279°
2026-04-14 10:39 51.63055 0.61352 36157 ft 408 kts 279°
2026-04-14 10:39 51.63376 0.52231 36153 ft 408 kts 279°
2026-04-14 10:40 51.63689 0.43110 36148 ft 407 kts 279°
2026-04-14 10:40 51.63991 0.34054 36129 ft 404 kts 279°
2026-04-14 10:41 51.64290 0.25024 36130 ft 404 kts 279°
2026-04-14 10:41 51.64456 0.15954 36127 ft 409 kts 273°
2026-04-14 10:42 51.63742 0.06802 36128 ft 414 kts 268°
2026-04-14 10:42 51.62775 -0.02347 36081 ft 415 kts 266°
2026-04-14 10:43 51.61975 -0.11495 36105 ft 409 kts 274°
2026-04-14 10:43 51.62217 -0.20542 36109 ft 404 kts 280°
2026-04-14 10:44 51.62743 -0.29528 36100 ft 403 kts 281°
2026-04-14 10:44 51.63316 -0.38498 36102 ft 403 kts 281°
2026-04-14 10:45 51.63873 -0.47476 36098 ft 403 kts 281°
2026-04-14 10:45 51.64408 -0.56470 36105 ft 403 kts 280°
2026-04-14 10:46 51.64930 -0.65457 36104 ft 403 kts 280°
2026-04-14 10:46 51.65445 -0.74454 36113 ft 404 kts 280°
2026-04-14 10:47 51.65955 -0.83457 36107 ft 404 kts 280°
2026-04-14 10:47 51.66458 -0.92451 36102 ft 404 kts 280°
2026-04-14 10:48 51.66951 -1.01403 36073 ft 403 kts 280°
2026-04-14 10:48 51.67440 -1.10398 36075 ft 403 kts 280°
2026-04-14 10:49 51.67921 -1.19399 36076 ft 403 kts 280°
2026-04-14 10:49 51.68397 -1.28405 36077 ft 403 kts 280°
2026-04-14 10:50 51.68865 -1.37417 36075 ft 404 kts 280°
2026-04-14 10:50 51.69327 -1.46430 36066 ft 403 kts 280°
2026-04-14 10:51 51.69779 -1.55417 36075 ft 401 kts 280°
2026-04-14 10:51 51.70223 -1.64368 36075 ft 401 kts 279°
2026-04-14 10:52 51.70736 -1.73296 36072 ft 400 kts 281°
2026-04-14 10:52 51.71385 -1.82195 36073 ft 399 kts 282°
2026-04-14 10:53 51.72049 -1.91084 36061 ft 399 kts 282°
2026-04-14 10:53 51.72692 -1.99974 36047 ft 398 kts 281°
2026-04-14 10:54 51.73313 -2.08811 36048 ft 396 kts 281°
2026-04-14 10:54 51.73926 -2.17630 36048 ft 396 kts 281°
2026-04-14 10:55 51.74532 -2.26460 36045 ft 396 kts 281°
2026-04-14 10:55 51.75131 -2.35287 36045 ft 396 kts 281°
2026-04-14 10:56 51.75724 -2.44119 36033 ft 396 kts 281°
2026-04-14 10:56 51.76310 -2.52951 36036 ft 395 kts 281°
2026-04-14 10:57 51.76889 -2.61773 36033 ft 395 kts 281°
2026-04-14 10:57 51.77456 -2.70532 36030 ft 395 kts 280°
2026-04-14 10:58 51.78021 -2.79360 36020 ft 395 kts 280°
2026-04-14 10:58 51.78573 -2.88114 36078 ft 384 kts 280°
2026-04-14 10:59 51.79098 -2.96567 36077 ft 375 kts 279°
2026-04-14 10:59 51.79618 -3.04928 36073 ft 374 kts 280°
2026-04-14 11:00 51.80132 -3.13287 36062 ft 374 kts 279°
2026-04-14 11:00 51.80639 -3.21658 36050 ft 374 kts 279°
2026-04-14 11:01 51.81140 -3.30031 36037 ft 375 kts 279°
2026-04-14 11:01 51.81634 -3.38415 36017 ft 375 kts 279°
2026-04-14 11:02 51.82122 -3.46791 36001 ft 373 kts 278°
2026-04-14 11:02 51.82745 -3.55097 35992 ft 371 kts 283°
2026-04-14 11:03 51.83736 -3.63269 35996 ft 371 kts 284°
2026-04-14 11:03 51.84785 -3.71367 35986 ft 370 kts 284°
2026-04-14 11:04 51.85846 -3.79520 35987 ft 370 kts 284°
2026-04-14 11:04 51.86897 -3.87682 35981 ft 370 kts 284°
2026-04-14 11:05 51.87936 -3.95836 35969 ft 370 kts 283°
2026-04-14 11:05 51.88965 -4.03970 35972 ft 369 kts 283°
2026-04-14 11:06 51.89987 -4.12106 35962 ft 369 kts 283°
2026-04-14 11:06 51.91004 -4.20245 35960 ft 369 kts 283°
2026-04-14 11:07 51.92016 -4.28390 35959 ft 369 kts 282°
2026-04-14 11:07 51.93022 -4.36537 35948 ft 369 kts 282°
2026-04-14 11:08 51.94022 -4.44686 35948 ft 368 kts 282°
2026-04-14 11:08 51.95014 -4.52817 35937 ft 368 kts 282°
2026-04-14 11:09 51.96001 -4.60951 35945 ft 368 kts 282°
2026-04-14 11:09 51.96982 -4.69086 35939 ft 367 kts 281°
2026-04-14 11:10 51.98441 -4.81293 35931 ft 368 kts 281°
2026-04-14 11:10 51.99407 -4.89431 35933 ft 367 kts 281°
2026-04-14 11:11 52.00367 -4.97570 35918 ft 367 kts 281°
2026-04-14 11:11 52.01320 -5.05700 35919 ft 366 kts 281°
2026-04-14 11:12 52.02266 -5.13823 35922 ft 366 kts 281°
2026-04-14 11:12 52.03433 -5.21811 35922 ft 366 kts 286°
2026-04-14 11:13 52.04966 -5.29709 35922 ft 367 kts 287°
2026-04-14 11:13 52.06561 -5.37584 35911 ft 367 kts 287°
2026-04-14 11:14 52.08159 -5.45462 35908 ft 367 kts 287°
2026-04-14 11:14 52.09743 -5.53343 35902 ft 367 kts 287°
2026-04-14 11:15 52.11320 -5.61243 35903 ft 367 kts 287°
2026-04-14 11:15 52.12889 -5.69146 35903 ft 367 kts 287°
2026-04-14 11:16 52.14453 -5.77053 35923 ft 367 kts 286°
2026-04-14 11:16 52.16042 -5.84953 35892 ft 367 kts 288°
2026-04-14 11:17 52.17894 -5.92708 35877 ft 368 kts 289°
2026-04-14 11:17 52.19846 -6.00399 35875 ft 369 kts 290°
2026-04-14 11:18 52.21797 -6.08148 35886 ft 369 kts 289°
2026-04-14 11:18 52.23721 -6.15915 35873 ft 369 kts 289°
2026-04-14 11:19 52.25631 -6.23694 35872 ft 369 kts 289°
2026-04-14 11:19 52.27533 -6.31478 35872 ft 369 kts 289°
2026-04-14 11:20 52.29113 -6.37956 35867 ft 369 kts 289°
2026-04-14 11:20 52.31007 -6.45752 35857 ft 369 kts 288°
2026-04-14 11:21 52.32898 -6.53560 35861 ft 370 kts 288°
2026-04-14 11:21 52.34787 -6.61384 35866 ft 370 kts 288°
2026-04-14 11:22 52.36672 -6.69221 35857 ft 370 kts 288°
2026-04-14 11:22 52.38552 -6.77070 35849 ft 370 kts 288°
2026-04-14 11:23 52.40427 -6.84923 35848 ft 370 kts 288°
2026-04-14 11:23 52.42299 -6.92789 35849 ft 370 kts 288°
2026-04-14 11:24 52.44163 -7.00653 35849 ft 371 kts 287°
2026-04-14 11:24 52.46024 -7.08534 35840 ft 371 kts 287°
2026-04-14 11:25 52.47881 -7.16427 35841 ft 371 kts 287°
2026-04-14 11:25 52.49734 -7.24331 35826 ft 371 kts 287°
2026-04-14 11:26 52.51580 -7.32235 35823 ft 371 kts 287°
2026-04-14 11:26 52.53421 -7.40150 35837 ft 371 kts 287°
2026-04-14 11:27 52.55258 -7.48072 35799 ft 371 kts 287°
2026-04-14 11:27 52.57092 -7.56009 35805 ft 372 kts 286°
2026-04-14 11:28 52.58923 -7.63969 35796 ft 372 kts 286°
2026-04-14 11:28 52.60748 -7.71931 35796 ft 372 kts 285°
2026-04-14 11:29 52.62557 -7.79850 35791 ft 372 kts 285°
2026-04-14 11:29 52.64372 -7.87826 35789 ft 372 kts 285°
2026-04-14 11:30 52.66181 -7.95806 35785 ft 372 kts 285°
2026-04-14 11:30 52.67985 -8.03794 35799 ft 372 kts 285°
2026-04-14 11:31 52.69787 -8.11805 35769 ft 373 kts 285°
2026-04-14 11:31 52.71586 -8.19838 35774 ft 374 kts 285°
2026-04-14 11:32 52.73382 -8.27881 35770 ft 374 kts 284°
2026-04-14 11:32 52.75173 -8.35931 35764 ft 374 kts 284°
2026-04-14 11:33 52.76958 -8.43992 35756 ft 374 kts 284°
2026-04-14 11:34 52.79627 -8.56097 35755 ft 374 kts 284°
2026-04-14 11:34 52.81401 -8.64186 35753 ft 375 kts 284°
2026-04-14 11:35 52.83177 -8.72323 35742 ft 377 kts 284°
2026-04-14 11:35 52.84954 -8.80484 35739 ft 377 kts 284°
2026-04-14 11:36 52.86726 -8.88651 35738 ft 377 kts 284°
2026-04-14 11:36 52.88491 -8.96825 35735 ft 377 kts 283°
2026-04-14 11:37 52.90250 -9.05004 35737 ft 377 kts 283°
2026-04-14 11:37 52.91992 -9.13137 35732 ft 377 kts 283°
2026-04-14 11:38 52.93754 -9.21402 35731 ft 380 kts 283°
2026-04-14 11:38 52.95500 -9.29624 35734 ft 381 kts 283°
2026-04-14 11:39 52.97257 -9.37920 35732 ft 381 kts 283°
2026-04-14 11:39 52.99008 -9.46224 35727 ft 381 kts 283°
2026-04-14 11:40 53.00752 -9.54530 35729 ft 381 kts 282°
2026-04-14 11:40 53.02487 -9.62836 35728 ft 381 kts 282°
2026-04-14 11:41 53.04221 -9.71165 35738 ft 381 kts 282°
2026-04-14 11:41 53.05950 -9.79517 35730 ft 383 kts 282°
2026-04-14 11:42 53.07681 -9.87899 35729 ft 383 kts 282°
2026-04-14 11:42 53.09407 -9.96292 35726 ft 383 kts 282°
2026-04-14 11:43 53.11125 -10.04683 35722 ft 383 kts 282°
2026-04-14 11:43 53.12837 -10.13086 35716 ft 383 kts 282°
2026-04-14 11:44 53.14544 -10.21497 35720 ft 383 kts 282°
2026-04-14 11:44 53.16245 -10.29911 35714 ft 384 kts 281°
2026-04-14 11:45 53.17930 -10.38286 35709 ft 384 kts 281°
2026-04-14 11:45 53.19621 -10.46729 35713 ft 384 kts 281°
2026-04-14 11:46 53.21318 -10.55232 35713 ft 384 kts 281°
2026-04-14 11:46 53.22985 -10.63625 35710 ft 384 kts 281°
2026-04-14 11:47 53.24658 -10.72087 35705 ft 384 kts 281°
2026-04-14 11:47 53.26324 -10.80545 35700 ft 383 kts 281°
2026-04-14 11:48 53.27974 -10.88948 35698 ft 379 kts 281°
2026-04-14 11:48 53.29608 -10.97322 35690 ft 379 kts 281°
2026-04-14 11:49 53.31236 -11.05708 35688 ft 379 kts 281°
2026-04-14 11:49 53.32859 -11.14101 35685 ft 379 kts 281°
2026-04-14 11:50 53.34476 -11.22494 35676 ft 379 kts 281°
2026-04-14 11:50 53.36087 -11.30896 35674 ft 379 kts 281°
2026-04-14 11:51 53.38493 -11.43505 35671 ft 378 kts 279°
2026-04-14 11:51 53.40085 -11.51896 35666 ft 378 kts 279°
2026-04-14 11:52 53.41669 -11.60285 35659 ft 378 kts 279°
2026-04-14 11:52 53.43248 -11.68689 35665 ft 378 kts 279°
2026-04-14 11:53 53.44813 -11.77055 35648 ft 379 kts 279°
2026-04-14 11:53 53.46396 -11.85549 35644 ft 379 kts 279°
2026-04-14 11:54 53.47963 -11.93993 35642 ft 379 kts 279°
2026-04-14 11:54 53.49524 -12.02462 35639 ft 381 kts 278°
2026-04-14 11:55 53.51092 -12.11001 35630 ft 383 kts 278°
2026-04-14 11:55 53.52659 -12.19557 35628 ft 383 kts 278°
2026-04-14 11:56 53.54210 -12.28064 35628 ft 383 kts 278°
2026-04-14 11:56 53.55763 -12.36633 35617 ft 383 kts 278°
2026-04-14 11:57 53.57311 -12.45211 35617 ft 383 kts 278°
2026-04-14 11:57 53.58852 -12.53793 35670 ft 383 kts 277°
2026-04-14 11:58 53.60394 -12.62455 35608 ft 389 kts 277°
2026-04-14 11:58 53.61952 -12.71217 35608 ft 391 kts 277°
2026-04-14 11:59 53.63508 -12.79989 35595 ft 391 kts 277°
2026-04-14 11:59 53.65057 -12.88767 35594 ft 391 kts 277°
2026-04-14 12:00 53.66596 -12.97555 35594 ft 391 kts 277°
2026-04-14 12:00 53.68129 -13.06343 35583 ft 391 kts 277°
2026-04-14 12:01 53.69656 -13.15141 35585 ft 391 kts 276°
2026-04-14 12:01 53.71178 -13.23960 35574 ft 392 kts 276°
2026-04-14 12:02 53.72687 -13.32741 35565 ft 392 kts 276°
2026-04-14 12:02 53.74199 -13.41579 35565 ft 392 kts 276°
2026-04-14 12:03 53.75706 -13.50438 35562 ft 392 kts 276°
2026-04-14 12:03 53.77208 -13.59310 35562 ft 393 kts 276°
2026-04-14 12:04 53.78704 -13.68194 35555 ft 393 kts 276°
2026-04-14 12:04 53.80194 -13.77101 35553 ft 395 kts 275°
2026-04-14 12:05 53.81687 -13.86069 35547 ft 397 kts 275°
2026-04-14 12:05 53.83180 -13.95059 35537 ft 397 kts 275°
2026-04-14 12:06 53.84664 -14.04047 35531 ft 396 kts 275°
2026-04-14 12:06 53.86140 -14.13040 35530 ft 396 kts 275°
2026-04-14 12:07 53.87610 -14.22044 35523 ft 396 kts 275°
2026-04-14 12:07 53.89071 -14.31050 35544 ft 397 kts 275°
2026-04-14 12:08 53.90534 -14.40138 35520 ft 402 kts 275°
2026-04-14 12:08 53.92007 -14.49320 35506 ft 404 kts 275°
2026-04-14 12:09 53.93232 -14.56961 35505 ft 404 kts 275°
2026-04-14 12:09 53.94698 -14.66161 35499 ft 404 kts 275°
2026-04-14 12:10 53.96154 -14.75363 35494 ft 404 kts 274°
2026-04-14 12:10 53.97602 -14.84571 35494 ft 404 kts 274°
2026-04-14 12:11 53.99044 -14.93801 35486 ft 406 kts 274°
2026-04-14 12:11 54.00725 -15.03062 35485 ft 415 kts 279°
2026-04-14 12:12 54.02745 -15.12284 35469 ft 417 kts 280°
2026-04-14 12:12 54.04822 -15.21493 35494 ft 417 kts 280°
2026-04-14 12:13 54.06899 -15.30739 35470 ft 419 kts 280°
2026-04-14 12:13 54.08969 -15.40037 35454 ft 420 kts 280°
2026-04-14 12:14 54.11028 -15.49339 35456 ft 420 kts 280°
2026-04-14 12:14 54.13072 -15.58626 35453 ft 423 kts 280°
2026-04-14 12:15 54.15135 -15.68045 35442 ft 424 kts 280°
2026-04-14 12:15 54.17196 -15.77480 35445 ft 424 kts 280°
2026-04-14 12:16 54.19248 -15.86916 35443 ft 424 kts 279°
2026-04-14 12:16 54.21289 -15.96347 35450 ft 423 kts 280°
2026-04-14 12:17 54.23325 -16.05823 35434 ft 426 kts 279°
2026-04-14 12:17 54.25362 -16.15335 35470 ft 427 kts 280°
2026-04-14 12:18 54.27402 -16.24911 35430 ft 430 kts 279°
2026-04-14 12:18 54.29447 -16.34546 35413 ft 431 kts 279°
2026-04-14 12:19 54.31487 -16.44193 35415 ft 431 kts 279°
2026-04-14 12:19 54.33518 -16.53849 35423 ft 431 kts 279°
2026-04-14 12:20 54.35539 -16.63513 35424 ft 431 kts 279°
2026-04-14 12:20 54.37553 -16.73187 35426 ft 432 kts 280°
2026-04-14 12:21 54.39567 -16.82921 35421 ft 434 kts 280°
2026-04-14 12:21 54.41582 -16.92689 35418 ft 434 kts 280°
2026-04-14 12:22 54.43589 -17.02466 35415 ft 434 kts 279°
2026-04-14 12:22 54.45587 -17.12245 35415 ft 434 kts 279°
2026-04-14 12:23 54.47575 -17.22035 35409 ft 434 kts 279°
2026-04-14 12:23 54.49542 -17.31766 35409 ft 434 kts 279°
2026-04-14 12:24 54.51514 -17.41566 35454 ft 433 kts 279°
2026-04-14 12:24 54.53483 -17.51423 35404 ft 438 kts 279°
2026-04-14 12:25 54.55466 -17.61392 35400 ft 441 kts 280°
2026-04-14 12:25 54.57448 -17.71382 35397 ft 441 kts 279°
2026-04-14 12:26 54.59421 -17.81380 35387 ft 440 kts 279°
2026-04-14 12:26 54.61383 -17.91385 35387 ft 440 kts 279°
2026-04-14 12:27 54.63336 -18.01395 35385 ft 440 kts 279°
2026-04-14 12:27 54.65282 -18.11428 35385 ft 442 kts 279°
2026-04-14 12:28 54.67231 -18.21543 35382 ft 445 kts 279°
2026-04-14 12:28 54.69182 -18.31696 35379 ft 445 kts 279°
2026-04-14 12:29 54.71124 -18.41855 35375 ft 445 kts 279°
2026-04-14 12:29 54.73056 -18.52018 35369 ft 445 kts 279°
2026-04-14 12:30 54.74980 -18.62195 35370 ft 445 kts 279°
2026-04-14 12:30 54.76879 -18.72302 35420 ft 444 kts 279°
2026-04-14 12:31 54.78787 -18.82521 35370 ft 447 kts 279°
2026-04-14 12:31 54.80696 -18.92795 35370 ft 448 kts 279°
2026-04-14 12:32 54.82601 -19.03090 35366 ft 449 kts 279°
2026-04-14 12:32 54.84504 -19.13438 35362 ft 451 kts 279°
2026-04-14 12:33 54.86401 -19.23803 35362 ft 451 kts 279°
2026-04-14 12:33 54.88288 -19.34179 35357 ft 450 kts 279°
2026-04-14 12:34 54.90165 -19.44562 35362 ft 451 kts 279°
2026-04-14 12:34 54.92037 -19.54979 35350 ft 452 kts 279°
2026-04-14 12:35 54.93903 -19.65414 35345 ft 452 kts 279°
2026-04-14 12:35 54.95760 -19.75856 35345 ft 452 kts 279°
2026-04-14 12:36 54.97610 -19.86328 35340 ft 453 kts 279°
2026-04-14 12:36 54.99456 -19.96837 35334 ft 454 kts 279°
2026-04-14 12:37 55.01150 -20.07401 35360 ft 452 kts 277°
2026-04-14 12:37 55.02648 -20.18027 35331 ft 452 kts 277°
2026-04-14 12:38 55.04853 -20.33930 35323 ft 452 kts 277°
2026-04-14 12:39 55.06345 -20.44588 35323 ft 452 kts 277°
2026-04-14 12:39 55.07834 -20.55247 35324 ft 452 kts 277°
2026-04-14 12:40 55.09314 -20.65909 35319 ft 453 kts 277°
2026-04-14 12:40 55.10787 -20.76619 35316 ft 454 kts 277°
2026-04-14 12:41 55.12255 -20.87359 35305 ft 455 kts 277°
2026-04-14 12:41 55.13715 -20.98115 35300 ft 455 kts 277°
2026-04-14 12:42 55.15165 -21.08874 35301 ft 455 kts 277°
2026-04-14 12:42 55.16605 -21.19637 35294 ft 455 kts 277°
2026-04-14 12:43 55.18035 -21.30411 35298 ft 455 kts 277°
2026-04-14 12:43 55.19455 -21.41193 35306 ft 455 kts 277°
2026-04-14 12:44 55.20867 -21.51989 35295 ft 456 kts 277°
2026-04-14 12:44 55.22276 -21.62841 35288 ft 458 kts 277°
2026-04-14 12:45 55.24375 -21.79162 35276 ft 458 kts 277°
2026-04-14 12:45 55.25763 -21.90051 35282 ft 458 kts 277°
2026-04-14 12:46 55.27140 -22.00945 35263 ft 457 kts 277°
2026-04-14 12:46 55.28506 -22.11845 35265 ft 458 kts 277°
2026-04-14 12:47 55.29865 -22.22772 35261 ft 458 kts 277°
2026-04-14 12:47 55.31215 -22.33701 35262 ft 458 kts 277°
2026-04-14 12:48 55.32557 -22.44654 35248 ft 459 kts 277°
2026-04-14 12:48 55.33891 -22.55639 35248 ft 460 kts 277°
2026-04-14 12:49 55.35218 -22.66643 35251 ft 460 kts 277°
2026-04-14 12:49 55.36526 -22.77582 35244 ft 460 kts 277°
2026-04-14 12:50 55.38482 -22.94108 35242 ft 460 kts 277°
2026-04-14 12:51 55.39773 -23.05130 35239 ft 460 kts 277°
2026-04-14 12:51 55.41054 -23.16166 35233 ft 460 kts 277°
2026-04-14 12:52 55.42326 -23.27206 35232 ft 460 kts 277°
2026-04-14 12:52 55.43589 -23.38274 35231 ft 462 kts 277°
2026-04-14 12:53 55.44847 -23.49381 35223 ft 462 kts 277°
2026-04-14 12:53 55.46094 -23.60496 35217 ft 462 kts 277°
2026-04-14 12:54 55.47332 -23.71613 35219 ft 462 kts 277°
2026-04-14 12:54 55.48558 -23.82733 35208 ft 462 kts 277°
2026-04-14 12:55 55.49774 -23.93861 35209 ft 462 kts 277°
2026-04-14 12:55 55.50972 -24.04917 35208 ft 462 kts 276°
2026-04-14 12:56 55.52168 -24.16059 35204 ft 462 kts 277°
2026-04-14 12:56 55.53355 -24.27217 35200 ft 463 kts 277°
2026-04-14 12:57 55.54534 -24.38397 35195 ft 463 kts 277°
2026-04-14 12:57 55.55703 -24.49589 35194 ft 463 kts 277°
2026-04-14 12:58 55.56861 -24.60780 35186 ft 463 kts 277°
2026-04-14 12:58 55.58009 -24.71975 35186 ft 463 kts 277°
2026-04-14 12:59 55.59147 -24.83184 35185 ft 463 kts 277°
2026-04-14 12:59 55.60274 -24.94399 35173 ft 463 kts 277°
2026-04-14 13:00 55.61203 -25.03719 35178 ft 463 kts 277°
2026-04-14 13:00 55.62313 -25.14954 35171 ft 464 kts 277°
2026-04-14 13:01 55.63415 -25.26226 35164 ft 465 kts 276°
2026-04-14 13:01 55.64508 -25.37510 35159 ft 465 kts 276°
2026-04-14 13:02 55.65590 -25.48787 35167 ft 465 kts 276°
2026-04-14 13:02 55.66662 -25.60090 35156 ft 466 kts 276°
2026-04-14 13:03 55.67725 -25.71403 35151 ft 465 kts 277°
2026-04-14 13:03 55.68776 -25.82711 35149 ft 465 kts 276°
2026-04-14 13:04 55.69819 -25.94045 35146 ft 466 kts 276°
2026-04-14 13:04 55.70851 -26.05382 35144 ft 466 kts 277°
2026-04-14 13:05 55.71874 -26.16742 35149 ft 467 kts 276°
2026-04-14 13:05 55.72889 -26.28140 35136 ft 468 kts 276°
2026-04-14 13:06 55.73893 -26.39537 35131 ft 467 kts 277°
2026-04-14 13:06 55.74886 -26.50921 35133 ft 467 kts 276°
2026-04-14 13:07 55.75869 -26.62341 35126 ft 468 kts 276°
2026-04-14 13:07 55.76842 -26.73752 35118 ft 467 kts 276°
2026-04-14 13:08 55.77803 -26.85156 35117 ft 468 kts 276°
2026-04-14 13:08 55.78757 -26.96634 35116 ft 470 kts 277°
2026-04-14 13:09 55.79701 -27.08091 35100 ft 468 kts 276°
2026-04-14 13:09 55.80631 -27.19537 35101 ft 469 kts 275°
2026-04-14 13:10 55.81555 -27.31032 35101 ft 469 kts 276°
2026-04-14 13:10 55.82459 -27.42401 35099 ft 467 kts 276°
2026-04-14 13:11 55.83358 -27.53876 35097 ft 469 kts 277°
2026-04-14 13:11 55.84247 -27.65360 35083 ft 468 kts 276°
2026-04-14 13:12 55.85123 -27.76794 35092 ft 467 kts 276°
2026-04-14 13:12 55.85990 -27.88290 35078 ft 470 kts 276°
2026-04-14 13:13 55.86849 -27.99800 35080 ft 468 kts 276°
2026-04-14 13:13 55.87694 -28.11272 35067 ft 468 kts 276°
2026-04-14 13:14 55.88530 -28.22798 35062 ft 469 kts 276°
2026-04-14 13:14 55.89353 -28.34276 35064 ft 465 kts 276°
2026-04-14 13:15 55.90163 -28.45729 35051 ft 467 kts 276°
2026-04-14 13:15 55.90965 -28.57232 35046 ft 468 kts 276°
2026-04-14 13:16 55.91754 -28.68698 35054 ft 466 kts 275°
2026-04-14 13:16 55.92535 -28.80213 35052 ft 470 kts 276°
2026-04-14 13:17 55.93309 -28.91778 35047 ft 468 kts 276°
2026-04-14 13:17 55.94067 -29.03272 35048 ft 466 kts 276°
2026-04-14 13:18 55.94815 -29.14786 35052 ft 467 kts 276°
2026-04-14 13:18 55.95550 -29.26272 35052 ft 464 kts 276°
2026-04-14 13:19 55.96273 -29.37745 35060 ft 466 kts 275°
2026-04-14 13:19 55.96988 -29.49259 35069 ft 466 kts 276°
2026-04-14 13:20 55.97690 -29.60734 35085 ft 465 kts 276°
2026-04-14 13:20 55.98376 -29.72150 35090 ft 466 kts 276°
2026-04-14 13:21 55.99057 -29.83630 35098 ft 464 kts 276°
2026-04-14 13:21 55.99723 -29.95084 35097 ft 464 kts 275°
2026-04-14 13:22 55.99610 -30.06632 35113 ft 465 kts 265°
2026-04-14 13:22 55.99006 -30.18097 35122 ft 464 kts 263°
2026-04-14 13:23 55.98300 -30.29562 35115 ft 463 kts 263°
2026-04-14 13:23 55.97586 -30.41011 35130 ft 465 kts 263°
2026-04-14 13:24 55.96876 -30.52471 35126 ft 464 kts 263°
2026-04-14 13:24 55.95803 -30.69661 35149 ft 464 kts 263°
2026-04-14 13:25 55.95076 -30.81101 35145 ft 465 kts 263°
2026-04-14 13:26 55.93588 -31.03953 35159 ft 463 kts 263°
2026-04-14 13:26 55.92831 -31.15347 35164 ft 463 kts 263°
2026-04-14 13:27 55.92061 -31.26748 35188 ft 462 kts 263°
2026-04-14 13:27 55.91284 -31.38115 35191 ft 462 kts 263°
2026-04-14 13:28 55.90496 -31.49472 35192 ft 461 kts 263°
2026-04-14 13:28 55.89699 -31.60804 35205 ft 460 kts 263°
2026-04-14 13:29 55.88900 -31.72020 35202 ft 459 kts 263°
2026-04-14 13:29 55.88079 -31.83391 35233 ft 459 kts 263°
2026-04-14 13:30 55.87254 -31.94668 35235 ft 460 kts 263°
2026-04-14 13:30 55.86424 -32.05875 35232 ft 459 kts 262°
2026-04-14 13:31 55.85577 -32.17149 35235 ft 460 kts 263°
2026-04-14 13:31 55.84720 -32.28417 35242 ft 459 kts 263°
2026-04-14 13:32 55.83854 -32.39688 35260 ft 460 kts 263°
2026-04-14 13:32 55.82976 -32.50971 35265 ft 462 kts 263°
2026-04-14 13:33 55.82084 -32.62280 35274 ft 461 kts 263°
2026-04-14 13:33 55.81183 -32.73576 35272 ft 461 kts 262°
2026-04-14 13:34 55.79815 -32.90470 35297 ft 461 kts 262°
2026-04-14 13:35 55.78891 -33.01713 35294 ft 459 kts 262°
2026-04-14 13:35 55.77958 -33.12950 35305 ft 459 kts 262°
2026-04-14 13:36 55.77014 -33.24173 35310 ft 460 kts 262°
2026-04-14 13:36 55.76061 -33.35386 35315 ft 458 kts 262°
2026-04-14 13:37 55.75102 -33.46541 35330 ft 457 kts 262°
2026-04-14 13:37 55.74141 -33.57586 35336 ft 456 kts 262°
2026-04-14 13:38 55.73164 -33.68710 35337 ft 456 kts 262°
2026-04-14 13:38 55.72176 -33.79824 35346 ft 456 kts 262°
2026-04-14 13:39 55.71182 -33.90907 35346 ft 454 kts 262°
2026-04-14 13:39 55.70181 -34.01934 35356 ft 452 kts 262°
2026-04-14 13:40 55.69175 -34.12910 35372 ft 451 kts 262°
2026-04-14 13:40 55.68160 -34.23881 35377 ft 451 kts 261°
2026-04-14 13:41 55.67135 -34.34843 35377 ft 451 kts 262°
2026-04-14 13:41 55.66100 -34.45802 35377 ft 451 kts 262°
2026-04-14 13:42 55.65056 -34.56745 35387 ft 449 kts 262°
2026-04-14 13:42 55.64009 -34.67597 35399 ft 447 kts 263°
2026-04-14 13:43 55.62955 -34.78428 35400 ft 446 kts 262°
2026-04-14 13:43 55.61893 -34.89257 35403 ft 447 kts 262°
2026-04-14 13:44 55.60821 -35.00083 35412 ft 447 kts 262°
2026-04-14 13:44 55.59745 -35.10826 35407 ft 446 kts 262°
2026-04-14 13:45 55.58657 -35.21594 35424 ft 444 kts 262°
2026-04-14 13:45 55.57565 -35.32314 35431 ft 443 kts 262°
2026-04-14 13:46 55.56464 -35.43015 35439 ft 443 kts 261°
2026-04-14 13:46 55.55353 -35.53722 35437 ft 443 kts 262°
2026-04-14 13:47 55.54235 -35.64414 35433 ft 443 kts 262°
2026-04-14 13:47 55.53105 -35.75085 35451 ft 440 kts 261°
2026-04-14 13:48 55.51975 -35.85678 35454 ft 439 kts 262°
2026-04-14 13:48 55.50837 -35.96256 35455 ft 439 kts 263°
2026-04-14 13:49 55.49885 -36.05044 35453 ft 439 kts 263°
2026-04-14 13:49 55.48734 -36.15604 35463 ft 439 kts 261°
2026-04-14 13:50 55.47573 -36.26164 35459 ft 438 kts 261°
2026-04-14 13:50 55.46401 -36.36721 35479 ft 439 kts 262°
2026-04-14 13:51 55.45218 -36.47277 35476 ft 439 kts 262°
2026-04-14 13:51 55.44028 -36.57821 35477 ft 438 kts 261°
2026-04-14 13:52 55.42829 -36.68333 35483 ft 437 kts 261°
2026-04-14 13:52 55.41626 -36.78814 35483 ft 437 kts 261°
2026-04-14 13:53 55.40414 -36.89296 35493 ft 436 kts 262°
2026-04-14 13:53 55.39197 -36.99735 35498 ft 435 kts 260°
2026-04-14 13:54 55.37971 -37.10159 35510 ft 435 kts 260°
2026-04-14 13:54 55.36738 -37.20578 35512 ft 435 kts 262°
2026-04-14 13:55 55.35496 -37.30991 35519 ft 435 kts 261°
2026-04-14 13:55 55.34244 -37.41395 35506 ft 435 kts 262°
2026-04-14 13:56 55.32983 -37.51792 35521 ft 435 kts 261°
2026-04-14 13:56 55.31715 -37.62174 35531 ft 435 kts 261°
2026-04-14 13:57 55.30447 -37.72479 35528 ft 435 kts 260°
2026-04-14 13:57 55.29162 -37.82848 35543 ft 435 kts 260°
2026-04-14 13:58 55.27866 -37.93213 35551 ft 435 kts 261°
2026-04-14 13:58 55.26563 -38.03566 35551 ft 434 kts 260°
2026-04-14 13:59 55.25261 -38.13836 35557 ft 431 kts 261°
2026-04-14 13:59 55.23954 -38.24071 35564 ft 430 kts 261°
2026-04-14 14:00 55.22638 -38.34304 35564 ft 431 kts 259°
2026-04-14 14:00 55.21317 -38.44516 35567 ft 430 kts 259°
2026-04-14 14:01 55.19982 -38.54737 35580 ft 430 kts 259°
2026-04-14 14:01 55.18644 -38.64927 35577 ft 429 kts 260°
2026-04-14 14:02 55.17300 -38.75077 35586 ft 428 kts 259°
2026-04-14 14:02 55.15950 -38.85212 35587 ft 428 kts 260°
2026-04-14 14:03 55.14591 -38.95343 35596 ft 428 kts 259°
2026-04-14 14:03 55.13224 -39.05464 35604 ft 428 kts 259°
2026-04-14 14:04 55.11848 -39.15583 35591 ft 428 kts 260°
2026-04-14 14:04 55.10466 -39.25676 35609 ft 427 kts 259°
2026-04-14 14:05 55.09078 -39.35745 35607 ft 426 kts 259°
2026-04-14 14:05 55.07683 -39.45804 35618 ft 426 kts 259°
2026-04-14 14:06 55.06278 -39.55859 35620 ft 427 kts 259°
2026-04-14 14:06 55.04876 -39.65837 35634 ft 426 kts 259°
2026-04-14 14:07 55.03455 -39.75874 35627 ft 426 kts 259°
2026-04-14 14:07 55.02032 -39.85861 35640 ft 424 kts 259°
2026-04-14 14:08 55.00605 -39.95818 35635 ft 424 kts 259°
2026-04-14 14:08 54.99148 -40.05763 35647 ft 424 kts 259°
2026-04-14 14:09 54.97643 -40.15689 35644 ft 424 kts 258°
2026-04-14 14:09 54.96124 -40.25605 35644 ft 424 kts 258°
2026-04-14 14:10 54.94603 -40.35502 35654 ft 423 kts 258°
2026-04-14 14:10 54.93082 -40.45355 35661 ft 421 kts 258°
2026-04-14 14:11 54.91556 -40.55191 35659 ft 421 kts 258°
2026-04-14 14:11 54.90023 -40.65019 35666 ft 421 kts 258°
2026-04-14 14:12 54.88482 -40.74837 35673 ft 421 kts 258°
2026-04-14 14:12 54.86934 -40.84638 35672 ft 421 kts 257°
2026-04-14 14:13 54.85384 -40.94394 35680 ft 418 kts 257°
2026-04-14 14:13 54.83831 -41.04111 35680 ft 418 kts 257°
2026-04-14 14:14 54.82272 -41.13819 35674 ft 418 kts 257°
2026-04-14 14:14 54.80705 -41.23515 35693 ft 418 kts 257°
2026-04-14 14:15 54.79129 -41.33208 35700 ft 418 kts 257°
2026-04-14 14:15 54.77558 -41.42824 35695 ft 417 kts 257°
2026-04-14 14:16 54.75972 -41.52467 35704 ft 416 kts 256°
2026-04-14 14:16 54.74382 -41.62082 35702 ft 415 kts 256°
2026-04-14 14:17 54.71984 -41.76493 35705 ft 415 kts 256°
2026-04-14 14:17 54.70375 -41.86091 35713 ft 415 kts 256°
2026-04-14 14:18 54.68760 -41.95676 35716 ft 415 kts 256°
2026-04-14 14:18 54.67136 -42.05260 35724 ft 416 kts 256°
2026-04-14 14:19 54.65502 -42.14850 35711 ft 416 kts 256°
2026-04-14 14:19 54.63861 -42.24430 35719 ft 416 kts 256°
2026-04-14 14:20 54.62211 -42.34006 35734 ft 416 kts 256°
2026-04-14 14:20 54.60555 -42.43571 35733 ft 416 kts 255°
2026-04-14 14:21 54.58890 -42.53132 35730 ft 416 kts 255°
2026-04-14 14:21 54.57221 -42.62670 35737 ft 416 kts 255°
2026-04-14 14:22 54.55544 -42.72202 35747 ft 415 kts 255°
2026-04-14 14:22 54.53860 -42.81718 35751 ft 415 kts 255°
2026-04-14 14:23 54.52169 -42.91231 35752 ft 415 kts 255°
2026-04-14 14:23 54.50469 -43.00737 35758 ft 416 kts 255°
2026-04-14 14:24 54.48764 -43.10228 35755 ft 415 kts 255°
2026-04-14 14:24 54.47055 -43.19690 35760 ft 414 kts 255°
2026-04-14 14:25 54.45340 -43.29138 35760 ft 414 kts 255°
2026-04-14 14:25 54.43616 -43.38583 35772 ft 414 kts 255°
2026-04-14 14:26 54.41884 -43.48028 35771 ft 415 kts 255°
2026-04-14 14:26 54.40143 -43.57470 35758 ft 415 kts 255°
2026-04-14 14:27 54.38400 -43.66877 35777 ft 412 kts 255°
2026-04-14 14:27 54.36668 -43.76177 35774 ft 412 kts 255°
2026-04-14 14:28 54.34918 -43.85525 35784 ft 412 kts 255°
2026-04-14 14:28 54.33162 -43.94866 35783 ft 412 kts 255°
2026-04-14 14:29 54.31397 -44.04204 35787 ft 412 kts 255°
2026-04-14 14:29 54.29626 -44.13526 35789 ft 411 kts 255°
2026-04-14 14:30 54.27854 -44.22808 35792 ft 409 kts 255°
2026-04-14 14:30 54.26080 -44.32055 35791 ft 409 kts 255°
2026-04-14 14:31 54.24300 -44.41294 35797 ft 409 kts 255°
2026-04-14 14:31 54.22513 -44.50523 35800 ft 409 kts 255°
2026-04-14 14:32 54.20717 -44.59751 35793 ft 409 kts 254°
2026-04-14 14:32 54.18917 -44.68958 35799 ft 408 kts 254°
2026-04-14 14:33 54.17117 -44.78118 35801 ft 406 kts 254°
2026-04-14 14:33 54.15314 -44.87249 35807 ft 406 kts 254°
2026-04-14 14:34 54.12596 -45.00942 35807 ft 406 kts 254°
2026-04-14 14:35 54.10776 -45.10055 35812 ft 406 kts 254°
2026-04-14 14:35 54.08948 -45.19161 35801 ft 406 kts 253°
2026-04-14 14:36 54.07429 -45.26698 35810 ft 404 kts 253°
2026-04-14 14:36 54.05602 -45.35726 35811 ft 403 kts 253°
2026-04-14 14:37 54.03768 -45.44752 35812 ft 403 kts 253°
2026-04-14 14:37 54.01928 -45.53760 35813 ft 403 kts 253°
2026-04-14 14:38 54.00080 -45.62767 35811 ft 403 kts 253°
2026-04-14 14:38 53.98226 -45.71764 35809 ft 402 kts 253°
2026-04-14 14:39 53.96378 -45.80689 35816 ft 399 kts 253°
2026-04-14 14:39 53.94531 -45.89574 35830 ft 399 kts 253°
2026-04-14 14:40 53.92673 -45.98471 35815 ft 401 kts 253°
2026-04-14 14:40 53.90803 -46.07388 35815 ft 402 kts 253°
2026-04-14 14:41 53.88924 -46.16305 35820 ft 401 kts 253°
2026-04-14 14:41 53.87042 -46.25199 35818 ft 400 kts 253°
2026-04-14 14:42 53.85161 -46.34043 35822 ft 398 kts 253°
2026-04-14 14:42 53.83280 -46.42855 35820 ft 398 kts 252°
2026-04-14 14:43 53.81392 -46.51663 35820 ft 398 kts 252°
2026-04-14 14:43 53.79498 -46.60460 35821 ft 398 kts 252°
2026-04-14 14:44 53.77596 -46.69254 35823 ft 398 kts 252°
2026-04-14 14:44 53.75690 -46.78030 35821 ft 397 kts 252°
2026-04-14 14:45 53.73783 -46.86769 35824 ft 396 kts 252°
2026-04-14 14:45 53.71875 -46.95483 35823 ft 396 kts 252°
2026-04-14 14:46 53.69957 -47.04202 35823 ft 396 kts 252°
2026-04-14 14:46 53.68033 -47.12911 35823 ft 396 kts 252°
2026-04-14 14:47 53.66102 -47.21620 35824 ft 397 kts 252°
2026-04-14 14:47 53.64159 -47.30341 35823 ft 398 kts 251°
2026-04-14 14:48 53.62208 -47.39065 35824 ft 398 kts 251°
2026-04-14 14:48 53.60251 -47.47775 35826 ft 398 kts 251°
2026-04-14 14:49 53.58286 -47.56487 35826 ft 398 kts 251°
2026-04-14 14:49 53.56316 -47.65185 35826 ft 398 kts 251°
2026-04-14 14:50 53.54352 -47.73820 35809 ft 398 kts 251°
2026-04-14 14:50 53.52374 -47.82483 35826 ft 396 kts 251°
2026-04-14 14:51 53.50395 -47.91114 35826 ft 396 kts 251°
2026-04-14 14:51 53.48408 -47.99742 35827 ft 396 kts 251°
2026-04-14 14:52 53.46417 -48.08356 35825 ft 396 kts 251°
2026-04-14 14:52 53.44419 -48.16967 35826 ft 396 kts 251°
2026-04-14 14:53 53.42414 -48.25569 35819 ft 396 kts 251°
2026-04-14 14:53 53.40407 -48.34146 35823 ft 394 kts 251°
2026-04-14 14:54 53.38399 -48.42693 35831 ft 395 kts 250°
2026-04-14 14:54 53.36378 -48.51265 35826 ft 396 kts 250°
2026-04-14 14:55 53.34347 -48.59843 35822 ft 396 kts 250°
2026-04-14 14:55 53.32311 -48.68408 35823 ft 396 kts 250°
2026-04-14 14:56 53.29245 -48.81236 35821 ft 395 kts 250°
2026-04-14 14:56 53.27200 -48.89757 35825 ft 395 kts 250°
2026-04-14 14:57 53.25148 -48.98268 35823 ft 395 kts 250°
2026-04-14 14:57 53.23091 -49.06769 35823 ft 395 kts 250°
2026-04-14 14:58 53.21027 -49.15266 35824 ft 395 kts 250°
2026-04-14 14:58 53.18957 -49.23756 35808 ft 395 kts 249°
2026-04-14 14:59 53.16884 -49.32222 35824 ft 394 kts 249°
2026-04-14 14:59 53.14809 -49.40666 35823 ft 394 kts 249°
2026-04-14 15:00 53.12742 -49.49042 35829 ft 394 kts 249°
2026-04-14 15:00 53.10654 -49.57472 35830 ft 394 kts 249°
2026-04-14 15:01 53.08558 -49.65909 35828 ft 395 kts 249°
2026-04-14 15:01 53.06447 -49.74369 35817 ft 397 kts 249°
2026-04-14 15:02 53.04328 -49.82827 35827 ft 396 kts 249°
2026-04-14 15:02 53.02206 -49.91267 35826 ft 396 kts 249°
2026-04-14 15:03 53.00079 -49.99705 35827 ft 396 kts 249°
2026-04-14 15:03 52.98018 -50.08180 35825 ft 396 kts 250°
2026-04-14 15:04 52.95989 -50.16674 35827 ft 396 kts 250°
2026-04-14 15:04 52.93956 -50.25155 35826 ft 396 kts 250°
2026-04-14 15:05 52.91910 -50.33622 35827 ft 396 kts 249°
2026-04-14 15:05 52.89854 -50.42082 35830 ft 396 kts 249°
2026-04-14 15:06 52.87792 -50.50532 35828 ft 396 kts 249°
2026-04-14 15:06 52.85724 -50.58973 35827 ft 396 kts 249°
2026-04-14 15:07 52.83651 -50.67407 35827 ft 396 kts 249°
2026-04-14 15:07 52.81570 -50.75840 35842 ft 396 kts 249°
2026-04-14 15:08 52.79481 -50.84269 35834 ft 397 kts 249°
2026-04-14 15:08 52.77383 -50.92706 35832 ft 397 kts 249°
2026-04-14 15:09 52.75278 -51.01137 35829 ft 397 kts 249°
2026-04-14 15:09 52.73168 -51.09560 35833 ft 397 kts 249°
2026-04-14 15:10 52.71051 -51.17975 35833 ft 397 kts 249°
2026-04-14 15:10 52.68943 -51.26326 35833 ft 397 kts 249°
2026-04-14 15:11 52.66814 -51.34722 35838 ft 397 kts 249°
2026-04-14 15:11 52.64680 -51.43114 35834 ft 397 kts 249°
2026-04-14 15:12 52.62538 -51.51500 35830 ft 397 kts 249°
2026-04-14 15:12 52.60392 -51.59873 35832 ft 397 kts 249°
2026-04-14 15:13 52.58239 -51.68244 35816 ft 397 kts 249°
2026-04-14 15:13 52.56081 -51.76599 35836 ft 397 kts 249°
2026-04-14 15:14 52.53916 -51.84954 35821 ft 397 kts 249°
2026-04-14 15:14 52.51747 -51.93292 35825 ft 397 kts 249°
2026-04-14 15:15 52.49571 -52.01626 35818 ft 397 kts 248°
2026-04-14 15:15 52.47390 -52.09950 35826 ft 397 kts 248°
2026-04-14 15:16 52.45202 -52.18266 35835 ft 397 kts 248°
2026-04-14 15:16 52.43007 -52.26580 35836 ft 397 kts 248°
2026-04-14 15:17 52.40807 -52.34885 35838 ft 397 kts 248°
2026-04-14 15:17 52.38601 -52.43183 35819 ft 397 kts 248°
2026-04-14 15:18 52.36389 -52.51469 35824 ft 397 kts 248°
2026-04-14 15:18 52.34172 -52.59748 35821 ft 397 kts 248°
2026-04-14 15:19 52.31948 -52.68018 35824 ft 397 kts 248°
2026-04-14 15:19 52.29722 -52.76271 35823 ft 397 kts 248°
2026-04-14 15:20 52.27490 -52.84515 35817 ft 397 kts 248°
2026-04-14 15:20 52.25253 -52.92748 35832 ft 397 kts 248°
2026-04-14 15:21 52.23007 -53.00982 35822 ft 397 kts 248°
2026-04-14 15:21 52.20755 -53.09213 35790 ft 398 kts 248°
2026-04-14 15:22 52.18511 -53.17383 35814 ft 397 kts 248°
2026-04-14 15:22 52.16248 -53.25593 35810 ft 397 kts 248°
2026-04-14 15:23 52.13981 -53.33792 35810 ft 397 kts 248°
2026-04-14 15:23 52.12091 -53.40602 35805 ft 397 kts 248°
2026-04-14 15:24 52.09811 -53.48791 35806 ft 397 kts 248°
2026-04-14 15:24 52.07527 -53.56968 35787 ft 397 kts 248°
2026-04-14 15:25 52.05236 -53.65140 35801 ft 397 kts 248°
2026-04-14 15:25 52.02942 -53.73296 35801 ft 397 kts 248°
2026-04-14 15:26 52.00640 -53.81450 35793 ft 397 kts 248°
2026-04-14 15:26 51.98334 -53.89590 35793 ft 397 kts 248°
2026-04-14 15:27 51.96021 -53.97729 35788 ft 397 kts 248°
2026-04-14 15:27 51.93703 -54.05856 35786 ft 397 kts 248°
2026-04-14 15:28 51.91378 -54.13975 35786 ft 397 kts 248°
2026-04-14 15:28 51.89049 -54.22087 35785 ft 397 kts 248°
2026-04-14 15:29 51.86713 -54.30193 35779 ft 397 kts 248°
2026-04-14 15:29 51.84373 -54.38285 35780 ft 397 kts 247°
2026-04-14 15:30 51.82026 -54.46376 35782 ft 397 kts 247°
2026-04-14 15:30 51.79372 -54.54216 35780 ft 401 kts 238°
2026-04-14 15:31 51.75940 -54.61354 35776 ft 403 kts 234°
2026-04-14 15:31 51.72372 -54.68264 35773 ft 404 kts 234°
2026-04-14 15:32 51.68754 -54.75185 35773 ft 404 kts 234°
2026-04-14 15:32 51.65144 -54.82112 35771 ft 404 kts 234°
2026-04-14 15:33 51.61538 -54.89044 35765 ft 404 kts 234°
2026-04-14 15:33 51.57928 -54.95974 35766 ft 404 kts 234°
2026-04-14 15:34 51.54289 -55.02940 35765 ft 404 kts 234°
2026-04-14 15:34 51.50694 -55.09801 35766 ft 404 kts 234°
2026-04-14 15:35 51.47070 -55.16699 35748 ft 404 kts 234°
2026-04-14 15:35 51.43436 -55.23596 35763 ft 405 kts 234°
2026-04-14 15:36 51.39796 -55.30488 35763 ft 405 kts 234°
2026-04-14 15:36 51.36152 -55.37367 35763 ft 405 kts 234°
2026-04-14 15:37 51.32503 -55.44238 35760 ft 405 kts 234°
2026-04-14 15:37 51.28847 -55.51101 35758 ft 406 kts 234°
2026-04-14 15:38 51.25185 -55.57961 35763 ft 406 kts 234°
2026-04-14 15:38 51.21515 -55.64815 35762 ft 406 kts 234°
2026-04-14 15:39 51.17840 -55.71660 35771 ft 407 kts 234°
2026-04-14 15:39 51.14154 -55.78506 35771 ft 407 kts 234°
2026-04-14 15:40 51.10461 -55.85350 35766 ft 408 kts 234°
2026-04-14 15:40 51.06755 -55.92198 35770 ft 408 kts 234°
2026-04-14 15:41 51.03044 -55.99036 35772 ft 408 kts 234°
2026-04-14 15:41 50.99330 -56.05860 35773 ft 408 kts 234°
2026-04-14 15:42 50.95612 -56.12676 35772 ft 409 kts 234°
2026-04-14 15:42 50.91889 -56.19482 35775 ft 409 kts 233°
2026-04-14 15:43 50.88159 -56.26283 35778 ft 409 kts 233°
2026-04-14 15:43 50.84452 -56.33023 35776 ft 409 kts 233°
2026-04-14 15:44 50.80715 -56.39800 35777 ft 409 kts 233°
2026-04-14 15:44 50.76974 -56.46568 35763 ft 409 kts 233°
2026-04-14 15:45 50.73227 -56.53328 35773 ft 409 kts 233°
2026-04-14 15:45 50.69474 -56.60080 35778 ft 409 kts 233°
2026-04-14 15:46 50.65715 -56.66825 35780 ft 409 kts 233°
2026-04-14 15:46 50.61955 -56.73555 35777 ft 409 kts 233°
2026-04-14 15:47 50.58190 -56.80276 35777 ft 409 kts 233°
2026-04-14 15:47 50.54422 -56.86984 35779 ft 409 kts 233°
2026-04-14 15:48 50.50649 -56.93685 35782 ft 409 kts 233°
2026-04-14 15:48 50.46873 -57.00373 35782 ft 409 kts 233°
2026-04-14 15:49 50.43095 -57.07047 35771 ft 409 kts 233°
2026-04-14 15:49 50.39309 -57.13716 35786 ft 409 kts 233°
2026-04-14 15:50 50.35521 -57.20373 35784 ft 409 kts 233°
2026-04-14 15:50 50.31730 -57.27018 35785 ft 409 kts 233°
2026-04-14 15:51 50.27935 -57.33653 35790 ft 409 kts 233°
2026-04-14 15:51 50.24138 -57.40276 35786 ft 409 kts 233°
2026-04-14 15:52 50.20333 -57.46893 35807 ft 409 kts 233°
2026-04-14 15:52 50.16529 -57.53491 35810 ft 409 kts 233°
2026-04-14 15:53 50.12736 -57.59982 35816 ft 395 kts 233°
2026-04-14 15:53 50.10926 -57.63095 35821 ft 381 kts 233°
2026-04-14 15:53 50.09197 -57.66145 35551 ft 374 kts 234°
2026-04-14 15:54 50.05825 -57.72516 34072 ft 385 kts 238°
2026-04-14 15:54 50.04254 -57.75883 33462 ft 384 kts 240°
2026-04-14 15:54 50.02808 -57.79379 32843 ft 383 kts 243°
2026-04-14 15:55 50.01511 -57.82992 32251 ft 382 kts 247°
2026-04-14 15:55 50.00598 -57.86823 31635 ft 376 kts 262°
2026-04-14 15:55 50.00476 -57.90834 31067 ft 372 kts 277°
2026-04-14 15:55 50.01119 -57.94708 30517 ft 372 kts 292°
2026-04-14 15:56 50.02484 -57.98125 30000 ft 375 kts 308°
2026-04-14 15:56 50.04486 -58.00755 29368 ft 382 kts 325°
2026-04-14 15:56 50.06983 -58.02286 28783 ft 393 kts 343°
2026-04-14 15:56 50.09744 -58.02448 28193 ft 406 kts
2026-04-14 15:57 50.12471 -58.01082 27656 ft 421 kts 22°
2026-04-14 15:57 50.14787 -57.98206 27112 ft 435 kts 45°
2026-04-14 15:57 50.16294 -57.94092 26593 ft 445 kts 70°
2026-04-14 15:57 50.16645 -57.89305 26095 ft 448 kts 97°
2026-04-14 15:58 50.15689 -57.84746 25476 ft 443 kts 121°
2026-04-14 15:58 50.14192 -57.80542 24798 ft 445 kts 124°
2026-04-14 15:58 50.12445 -57.76576 24117 ft 444 kts 133°
2026-04-14 15:58 50.10351 -57.73162 23423 ft 440 kts 145°
2026-04-14 15:59 50.07854 -57.70508 22593 ft 431 kts 160°
2026-04-14 15:59 50.05080 -57.68955 21789 ft 418 kts 176°
2026-04-14 15:59 50.02239 -57.68721 21023 ft 402 kts 195°
2026-04-14 15:59 49.99570 -57.69709 20282 ft 396 kts 198°
2026-04-14 16:00 49.96753 -57.69666 19532 ft 416 kts 176°
2026-04-14 16:00 49.93919 -57.68819 19063 ft 410 kts 176°
2026-04-14 16:00 49.91133 -57.67986 18371 ft 409 kts 176°
2026-04-14 16:00 49.88321 -57.67163 17424 ft 414 kts 176°
2026-04-14 16:01 49.85470 -57.66379 16378 ft 418 kts 177°
2026-04-14 16:01 49.82581 -57.65712 15352 ft 421 kts 179°
2026-04-14 16:01 49.79665 -57.65290 14341 ft 422 kts 182°
2026-04-14 16:01 49.76781 -57.64975 13977 ft 408 kts 182°
2026-04-14 16:02 49.73995 -57.64702 13692 ft 394 kts 183°
2026-04-14 16:02 49.71311 -57.64478 13388 ft 380 kts 183°
2026-04-14 16:02 49.68716 -57.64285 13159 ft 366 kts 184°
2026-04-14 16:02 49.66212 -57.64147 12882 ft 355 kts 185°
2026-04-14 16:03 49.63740 -57.64044 12169 ft 357 kts 185°
2026-04-14 16:03 49.61244 -57.64005 11463 ft 360 kts 186°
2026-04-14 16:03 49.58733 -57.64057 10773 ft 362 kts 187°
2026-04-14 16:03 49.56213 -57.64226 10085 ft 363 kts 188°
2026-04-14 16:04 49.53703 -57.64425 9587 ft 359 kts 188°
2026-04-14 16:04 49.51244 -57.64649 9208 ft 350 kts 188°
2026-04-14 16:04 49.48836 -57.64864 8887 ft 342 kts 188°
2026-04-14 16:04 49.46512 -57.65058 8792 ft 327 kts 188°
2026-04-14 16:05 49.44282 -57.65219 8707 ft 315 kts 188°
2026-04-14 16:05 49.42135 -57.65371 8594 ft 303 kts 188°
2026-04-14 16:05 49.40063 -57.65526 8452 ft 294 kts 188°
2026-04-14 16:05 49.38047 -57.65588 8312 ft 286 kts 185°
2026-04-14 16:06 49.36107 -57.65541 8163 ft 279 kts 184°
2026-04-14 16:06 49.34196 -57.65452 8037 ft 272 kts 183°
2026-04-14 16:06 49.32327 -57.65302 7883 ft 266 kts 182°
2026-04-14 16:06 49.30496 -57.65089 7651 ft 264 kts 180°
2026-04-14 16:07 49.28670 -57.64851 7379 ft 263 kts 180°
2026-04-14 16:07 49.26850 -57.64603 7132 ft 262 kts 179°
2026-04-14 16:07 49.25040 -57.64345 6879 ft 261 kts 180°
2026-04-14 16:07 49.23239 -57.64096 6669 ft 258 kts 179°
2026-04-14 16:08 49.21472 -57.63806 6491 ft 253 kts 177°
2026-04-14 16:08 49.19717 -57.63439 6313 ft 249 kts 175°
2026-04-14 16:08 49.18036 -57.63014 6157 ft 247 kts 173°
2026-04-14 16:08 49.16360 -57.62530 5933 ft 245 kts 172°
2026-04-14 16:09 49.14709 -57.61785 5584 ft 251 kts 157°
2026-04-14 16:09 49.13158 -57.60526 5270 ft 253 kts 150°
2026-04-14 16:09 49.11840 -57.58763 4879 ft 255 kts 122°
2026-04-14 16:09 49.11379 -57.56236 4423 ft 250 kts 81°
2026-04-14 16:10 49.11911 -57.53699 3705 ft 257 kts 55°
2026-04-14 16:10 49.12833 -57.51277 3022 ft 271 kts 55°
2026-04-14 16:10 49.13894 -57.48887 2540 ft 273 kts 47°
2026-04-14 16:10 49.14759 -57.47454 2259 ft 271 kts 40°
2026-04-14 16:11 49.16210 -57.45652 1931 ft 262 kts 34°
2026-04-14 16:11 49.17676 -57.44355 1644 ft 237 kts 15°
2026-04-14 16:11 49.19250 -57.44042 1137 ft 225 kts
2026-04-14 16:11 49.20609 -57.42914 764 ft 218 kts 36°
2026-04-14 16:12 49.21749 -57.41582 668 ft 195 kts 35°
2026-04-14 16:12 49.22720 -57.40332 655 ft 171 kts 44°
2026-04-14 16:12 49.23178 -57.38732 466 ft 161 kts 87°
2026-04-14 16:12 49.22821 -57.37296 358 ft 138 kts 143°
2026-04-14 16:13 49.22031 -57.37149 81 ft 16 kts 218°